Location: N�rnberg
(49.4471°N, 11.0632°E)
Time: 18:00:40
(UTC+01:00)

ARIANE 6 FM1 Upper Stage - Pass Details

Date: 13 February 2026
Orbit: 523 x 607 km, 62.0° (Epoch: 8 March)

Event Time Altitude Azimuth Distance (km) Brightness Sun altitude
Rises 18:36:37 0° 316° (NW) 2,666 6.7 -11.0°
Reaches altitude 10° 18:39:06 10° 330° (NNW) 1,771 5.5 -11.5°
Maximum altitude 18:42:26 25° 28° (NNE) 1,086 3.8 -12.0°
Enters shadow 18:44:15 18° 67° (ENE) 1,329 4.0 -12.3°
